Location: Fort Wayne
(41.1310°N, 85.1290°W)
Time: 15:52:05
(UTC-04:00)

Gbstr 26 Del rocket - Visible Passes

Search period start: 26 July 2016 00:00
Search period end: 05 August 2016 00:00
Orbit: 494 x 1267 km, 51.8° (Epoch: 26 July)

Date Brightness Start Highest point End Pass type
(mag) Time Alt. Az. Time Alt. Az. Time Alt. Az.
26 Jul 3.9 00:26:57 10° NW 00:31:25 44° NNE 00:31:25 44° NNE visible
26 Jul 5.3 22:35:09 10° NW 22:39:34 25° N 22:43:21 10° ENE visible
27 Jul 3.7 00:22:49 10° NW 00:27:04 52° N 00:27:04 52° N visible
27 Jul 5.1 22:31:08 10° NW 22:35:40 27° N 22:39:31 10° ENE visible
28 Jul 3.5 00:18:42 10° NW 00:22:46 57° NNW 00:22:46 57° NNW visible
28 Jul 4.9 22:27:05 10° NW 22:31:45 29° NNE 22:35:41 10° ENE visible
29 Jul 3.5 00:14:34 10° NW 00:18:29 57° NW 00:18:29 57° NW visible
29 Jul 4.7 22:23:00 10° NW 22:27:50 32° NNE 22:31:42 11° ENE visible
30 Jul 3.7 00:10:29 10° WNW 00:14:15 51° WNW 00:14:15 51° WNW visible
30 Jul 4.5 22:18:54 10° NW 22:23:54 36° NNE 22:27:29 13° E visible
31 Jul 3.9 00:06:26 10° WNW 00:10:03 43° W 00:10:03 43° W visible
31 Jul 4.2 22:14:47 10° NW 22:19:56 41° NNE 22:23:19 15° E visible
01 Aug 4.2 00:02:25 10° WNW 00:05:53 36° W 00:05:53 36° W visible
01 Aug 3.9 22:10:40 10° NW 22:15:58 49° NNE 22:19:11 17° E visible
01 Aug 4.5 23:58:27 10° WNW 00:01:45 29° WSW 00:01:45 29° WSW visible
02 Aug 3.6 22:06:32 10° NW 22:11:57 58° NNE 22:15:06 19° ESE visible
02 Aug 4.8 23:54:34 10° WNW 23:57:39 24° WSW 23:57:39 24° WSW visible
03 Aug 3.4 22:02:24 10° NW 22:07:55 71° NNE 22:11:02 20° ESE visible
03 Aug 5.0 23:50:50 10° W 23:53:37 19° WSW 23:53:37 19° WSW visible
04 Aug 3.3 21:58:17 10° NW 22:03:51 87° NE 22:07:02 20° SE visible
04 Aug 5.3 23:47:18 10° W 23:49:36 15° WSW 23:49:36 15° WSW visible
